sat.trackr.live / text

‹ back to catalog

STARLINK-4482

NORAD 53530 · 2022-101D

PAYLOAD ACTIVE UNKNOWN

§ Identity

Operator
Country
US
Launch date
2022-08-19
Launch site
AFETR
Launch vehicle
Mass (kg)
RCS (m²)

Purposes: comms

External: N2YO · Heavens-Above · Gunter

§ Orbital elements

Epoch: 2026-05-25T02:17:31.022880Z

Period
95.44 min
Inclination
53.2141°
Eccentricity
0.0001628
Mean motion
15.08841881 rev/d
Perigee alt
538.6 km
Apogee alt
540.9 km
Semi-major
6,917.9 km
B*
-3.9458e-5
RAAN
91.3395°
Arg perigee
110.0702°
Mean anomaly
250.0466°
Rev number
20,769

§ Raw data

STARLINK-44821 53530U 22101D   26145.09549795 -.00000916  00000+0 -39458-4 0  99982 53530  53.2141  91.3395 0001628 110.0702 250.0466 15.08841881207693

JSON: /api/v1/satellites/53530 · /tle

For live sub-satellite position, see the globe view (requires WebGL).

§ Visibility from observer

Set your observer location to see the next 7 days of passes ≥ 10°. The values pass through the URL so the page stays shareable.

No JS? Fill the form by hand. The geolocation button needs JavaScript.